Year,Month,Day,Hour,Minute,Value (Times are PST for temperature in C)
2014,10,27,00,00,4.80
2014,10,27,00,01,4.80
2014,10,27,00,02,4.80
2014,10,27,00,03,4.80
2014,10,27,00,04,4.80
2014,10,27,00,05,4.80
2014,10,27,00,06,4.80
2014,10,27,00,07,4.80
2014,10,27,00,08,4.70
2014,10,27,00,09,4.70
2014,10,27,00,10,4.70
2014,10,27,00,11,4.70
2014,10,27,00,12,4.70
2014,10,27,00,13,4.70
2014,10,27,00,14,4.70
2014,10,27,00,15,4.70
2014,10,27,00,16,4.70
2014,10,27,00,17,4.70
2014,10,27,00,18,4.70
2014,10,27,00,19,4.70
2014,10,27,00,20,4.70
2014,10,27,00,21,4.70
2014,10,27,00,22,4.60
2014,10,27,00,23,4.60
2014,10,27,00,24,4.60
2014,10,27,00,25,4.60
2014,10,27,00,26,4.60
2014,10,27,00,27,4.50
2014,10,27,00,28,4.50
2014,10,27,00,29,4.50
2014,10,27,00,30,4.50
2014,10,27,00,31,4.50
2014,10,27,00,32,4.50
2014,10,27,00,33,4.50
2014,10,27,00,34,4.40
2014,10,27,00,35,4.50
2014,10,27,00,36,4.50
2014,10,27,00,37,4.40
2014,10,27,00,38,4.40
2014,10,27,00,39,4.40
2014,10,27,00,40,4.40
2014,10,27,00,41,4.40
2014,10,27,00,42,4.40
2014,10,27,00,43,4.40
2014,10,27,00,44,4.40
2014,10,27,00,45,4.40
2014,10,27,00,46,4.40
2014,10,27,00,47,4.40
2014,10,27,00,48,4.40
2014,10,27,00,49,4.40
2014,10,27,00,50,4.30
2014,10,27,00,51,4.30
2014,10,27,00,52,4.30
2014,10,27,00,53,4.30
2014,10,27,00,54,4.30
2014,10,27,00,55,4.40
2014,10,27,00,56,4.40
2014,10,27,00,57,4.40
2014,10,27,00,58,4.40
2014,10,27,00,59,4.30
2014,10,27,01,00,4.30
2014,10,27,01,01,4.30
2014,10,27,01,02,4.30
2014,10,27,01,03,4.30
2014,10,27,01,04,4.30
2014,10,27,01,05,4.30
2014,10,27,01,06,4.30
2014,10,27,01,07,4.30
2014,10,27,01,08,4.30
2014,10,27,01,09,4.30
2014,10,27,01,10,4.30
2014,10,27,01,11,4.30
2014,10,27,01,12,4.40
2014,10,27,01,13,4.30
2014,10,27,01,14,4.30
2014,10,27,01,15,4.40
2014,10,27,01,16,4.30
2014,10,27,01,17,4.30
2014,10,27,01,18,4.30
2014,10,27,01,19,4.30
2014,10,27,01,20,4.30
2014,10,27,01,21,4.30
2014,10,27,01,22,4.30
2014,10,27,01,23,4.30
2014,10,27,01,24,4.30
2014,10,27,01,25,4.30
2014,10,27,01,26,4.20
2014,10,27,01,27,4.20
2014,10,27,01,28,4.20
2014,10,27,01,29,4.20
2014,10,27,01,30,4.20
2014,10,27,01,31,4.20
2014,10,27,01,32,4.20
2014,10,27,01,33,4.20
2014,10,27,01,34,4.10
2014,10,27,01,35,4.10
2014,10,27,01,36,4.10
2014,10,27,01,37,4.10
2014,10,27,01,38,4.10
2014,10,27,01,39,4.10
2014,10,27,01,40,4.10
2014,10,27,01,41,4.10
2014,10,27,01,42,4.10
2014,10,27,01,43,4.10
2014,10,27,01,44,4.10
2014,10,27,01,45,4.10
2014,10,27,01,46,4.10
2014,10,27,01,47,4.10
2014,10,27,01,48,4.10
2014,10,27,01,49,4.10
2014,10,27,01,50,4.10
2014,10,27,01,51,4.10
2014,10,27,01,52,4.10
2014,10,27,01,53,4.10
2014,10,27,01,54,4.10
2014,10,27,01,55,4.10
2014,10,27,01,56,4.10
2014,10,27,01,57,4.10
2014,10,27,01,58,4.10
2014,10,27,01,59,4.10
2014,10,27,02,00,4.10
2014,10,27,02,01,4.10
2014,10,27,02,02,4.10
2014,10,27,02,03,4.10
2014,10,27,02,04,4.10
2014,10,27,02,05,4.10
2014,10,27,02,06,4.10
2014,10,27,02,07,4.10
2014,10,27,02,08,4.00
2014,10,27,02,09,4.00
2014,10,27,02,10,4.00
2014,10,27,02,11,4.00
2014,10,27,02,12,4.00
2014,10,27,02,13,4.00
2014,10,27,02,14,3.90
2014,10,27,02,15,3.90
2014,10,27,02,16,3.90
2014,10,27,02,17,3.90
2014,10,27,02,18,3.90
2014,10,27,02,19,3.90
2014,10,27,02,20,3.90
2014,10,27,02,21,3.90
2014,10,27,02,22,3.80
2014,10,27,02,23,3.80
2014,10,27,02,24,3.80
2014,10,27,02,25,3.80
2014,10,27,02,26,3.80
2014,10,27,02,27,3.80
2014,10,27,02,28,3.80
2014,10,27,02,29,3.80
2014,10,27,02,30,3.70
2014,10,27,02,31,3.70
2014,10,27,02,32,3.70
2014,10,27,02,33,3.70
2014,10,27,02,34,3.70
2014,10,27,02,35,3.70
2014,10,27,02,36,3.70
2014,10,27,02,37,3.70
2014,10,27,02,38,3.70
2014,10,27,02,39,3.80
2014,10,27,02,40,3.80
2014,10,27,02,41,3.80
2014,10,27,02,42,3.80
2014,10,27,02,43,3.90
2014,10,27,02,44,3.90
2014,10,27,02,45,3.90
2014,10,27,02,46,3.90
2014,10,27,02,47,3.90
2014,10,27,02,48,3.90
2014,10,27,02,49,3.80
2014,10,27,02,50,3.80
2014,10,27,02,51,3.80
2014,10,27,02,52,3.80
2014,10,27,02,53,3.80
2014,10,27,02,54,3.80
2014,10,27,02,55,3.80
2014,10,27,02,56,3.80
2014,10,27,02,57,3.80
2014,10,27,02,58,3.90
2014,10,27,02,59,3.90
2014,10,27,03,00,3.90
2014,10,27,03,01,3.90
2014,10,27,03,02,3.90
2014,10,27,03,03,3.90
2014,10,27,03,04,3.90
2014,10,27,03,05,3.90
2014,10,27,03,06,3.90
2014,10,27,03,07,3.90
2014,10,27,03,08,3.90
2014,10,27,03,09,3.90
2014,10,27,03,10,3.90
2014,10,27,03,11,3.90
2014,10,27,03,12,3.90
2014,10,27,03,13,3.90
2014,10,27,03,14,3.90
2014,10,27,03,15,3.90
2014,10,27,03,16,3.90
2014,10,27,03,17,3.90
2014,10,27,03,18,3.90
2014,10,27,03,19,3.90
2014,10,27,03,20,3.80
2014,10,27,03,21,3.80
2014,10,27,03,22,3.80
2014,10,27,03,23,3.80
2014,10,27,03,24,3.80
2014,10,27,03,25,3.80
2014,10,27,03,26,3.80
2014,10,27,03,27,3.80
2014,10,27,03,28,3.80
2014,10,27,03,29,3.80
2014,10,27,03,30,3.80
2014,10,27,03,31,3.80
2014,10,27,03,32,3.80
2014,10,27,03,33,3.80
2014,10,27,03,34,3.90
2014,10,27,03,35,3.90
2014,10,27,03,36,3.90
2014,10,27,03,37,3.90
2014,10,27,03,38,3.90
2014,10,27,03,39,3.90
2014,10,27,03,40,3.90
2014,10,27,03,41,3.80
2014,10,27,03,42,3.80
2014,10,27,03,43,3.80
2014,10,27,03,44,3.80
2014,10,27,03,45,3.80
2014,10,27,03,46,3.80
2014,10,27,03,47,3.80
2014,10,27,03,48,3.80
2014,10,27,03,49,3.80
2014,10,27,03,50,3.70
2014,10,27,03,51,3.70
2014,10,27,03,52,3.70
2014,10,27,03,53,3.70
2014,10,27,03,54,3.70
2014,10,27,03,55,3.70
2014,10,27,03,56,3.70
2014,10,27,03,57,3.70
2014,10,27,03,58,3.70
2014,10,27,03,59,3.70
2014,10,27,04,00,3.70
2014,10,27,04,01,3.70
2014,10,27,04,02,3.70
2014,10,27,04,03,3.70
2014,10,27,04,04,3.80
2014,10,27,04,05,3.80
2014,10,27,04,06,3.80
2014,10,27,04,07,3.80
2014,10,27,04,08,3.90
2014,10,27,04,09,3.90
2014,10,27,04,10,3.90
2014,10,27,04,11,3.90
2014,10,27,04,12,3.90
2014,10,27,04,13,4.00
2014,10,27,04,14,4.00
2014,10,27,04,15,4.00
2014,10,27,04,16,4.00
2014,10,27,04,17,4.00
2014,10,27,04,18,3.90
2014,10,27,04,19,3.90
2014,10,27,04,20,3.90
2014,10,27,04,21,3.90
2014,10,27,04,22,3.90
2014,10,27,04,23,3.90
2014,10,27,04,24,3.90
2014,10,27,04,25,3.90
2014,10,27,04,26,3.90
2014,10,27,04,27,3.90
2014,10,27,04,28,3.80
2014,10,27,04,29,3.80
2014,10,27,04,30,3.90
2014,10,27,04,31,3.90
2014,10,27,04,32,3.90
2014,10,27,04,33,3.90
2014,10,27,04,34,3.90
2014,10,27,04,35,3.90
2014,10,27,04,36,3.90
2014,10,27,04,37,3.90
2014,10,27,04,38,3.90
2014,10,27,04,39,3.90
2014,10,27,04,40,3.90
2014,10,27,04,41,3.90
2014,10,27,04,42,3.90
2014,10,27,04,43,3.90
2014,10,27,04,44,3.90
2014,10,27,04,45,3.90
2014,10,27,04,46,3.90
2014,10,27,04,47,3.90
2014,10,27,04,48,3.90
2014,10,27,04,49,3.90
2014,10,27,04,50,3.90
2014,10,27,04,51,3.90
2014,10,27,04,52,3.90
2014,10,27,04,53,3.90
2014,10,27,04,54,3.90
2014,10,27,04,55,3.90
2014,10,27,04,56,3.90
2014,10,27,04,57,3.90
2014,10,27,04,58,3.80
2014,10,27,04,59,3.80
2014,10,27,05,00,3.90
2014,10,27,05,01,3.90
2014,10,27,05,02,3.90
2014,10,27,05,03,3.90
2014,10,27,05,04,3.90
2014,10,27,05,05,3.90
2014,10,27,05,06,4.00
2014,10,27,05,07,4.00
2014,10,27,05,08,4.00
2014,10,27,05,09,4.00
2014,10,27,05,10,4.10
2014,10,27,05,11,4.10
2014,10,27,05,12,4.20
2014,10,27,05,13,4.20
2014,10,27,05,14,4.30
2014,10,27,05,15,4.30
2014,10,27,05,16,4.40
2014,10,27,05,17,4.60
2014,10,27,05,18,4.70
2014,10,27,05,19,4.80
2014,10,27,05,20,4.90
2014,10,27,05,21,5.00
2014,10,27,05,22,5.10
2014,10,27,05,23,5.20
2014,10,27,05,24,5.30
2014,10,27,05,25,5.30
2014,10,27,05,26,5.40
2014,10,27,05,27,5.40
2014,10,27,05,28,5.50
2014,10,27,05,29,5.70
2014,10,27,05,30,5.70
2014,10,27,05,31,5.80
2014,10,27,05,32,5.90
2014,10,27,05,33,6.00
2014,10,27,05,34,6.20
2014,10,27,05,35,6.30
2014,10,27,05,36,6.40
2014,10,27,05,37,6.50
2014,10,27,05,38,6.70
2014,10,27,05,39,6.80
2014,10,27,05,40,6.90
2014,10,27,05,41,7.00
2014,10,27,05,42,7.10
2014,10,27,05,43,7.10
2014,10,27,05,44,7.20
2014,10,27,05,45,7.20
2014,10,27,05,46,7.30
2014,10,27,05,47,7.40
2014,10,27,05,48,7.40
2014,10,27,05,49,7.50
2014,10,27,05,50,7.50
2014,10,27,05,51,7.60
2014,10,27,05,52,7.60
2014,10,27,05,53,7.60
2014,10,27,05,54,7.70
2014,10,27,05,55,7.70
2014,10,27,05,56,7.70
2014,10,27,05,57,7.70
2014,10,27,05,58,7.70
2014,10,27,05,59,7.80
2014,10,27,06,00,7.80
2014,10,27,06,01,7.80
2014,10,27,06,02,7.80
2014,10,27,06,03,7.80
2014,10,27,06,04,7.80
2014,10,27,06,05,7.80
2014,10,27,06,06,7.80
2014,10,27,06,07,7.90
2014,10,27,06,08,7.90
2014,10,27,06,09,7.90
2014,10,27,06,10,7.90
2014,10,27,06,11,7.90
2014,10,27,06,12,8.00
2014,10,27,06,13,8.00
2014,10,27,06,14,8.00
2014,10,27,06,15,8.00
2014,10,27,06,16,8.00
2014,10,27,06,17,8.10
2014,10,27,06,18,8.10
2014,10,27,06,19,8.10
2014,10,27,06,20,8.10
2014,10,27,06,21,8.10
2014,10,27,06,22,8.10
2014,10,27,06,23,8.10
2014,10,27,06,24,8.10
2014,10,27,06,25,8.10
2014,10,27,06,26,8.10
2014,10,27,06,27,8.10
2014,10,27,06,28,8.10
2014,10,27,06,29,8.10
2014,10,27,06,30,8.10
2014,10,27,06,31,8.10
2014,10,27,06,32,8.10
2014,10,27,06,33,8.10
2014,10,27,06,34,8.10
2014,10,27,06,35,8.10
2014,10,27,06,36,8.10
2014,10,27,06,37,8.10
2014,10,27,06,38,8.10
2014,10,27,06,39,8.10
2014,10,27,06,40,8.10
2014,10,27,06,41,8.10
2014,10,27,06,42,8.10
2014,10,27,06,43,8.10
2014,10,27,06,44,8.10
2014,10,27,06,45,8.10
2014,10,27,06,46,8.10
2014,10,27,06,47,8.10
2014,10,27,06,48,8.10
2014,10,27,06,49,8.10
2014,10,27,06,50,8.10
2014,10,27,06,51,8.10
2014,10,27,06,52,8.10
2014,10,27,06,53,8.10
2014,10,27,06,54,8.10
2014,10,27,06,55,8.10
2014,10,27,06,56,8.10
2014,10,27,06,57,8.10
2014,10,27,06,58,8.10
2014,10,27,06,59,8.10
2014,10,27,07,00,8.10
2014,10,27,07,01,8.10
2014,10,27,07,02,8.10
2014,10,27,07,03,8.10
2014,10,27,07,04,8.10
2014,10,27,07,05,8.10
2014,10,27,07,06,8.10
2014,10,27,07,07,8.10
2014,10,27,07,08,8.10
2014,10,27,07,09,8.10
2014,10,27,07,10,8.10
2014,10,27,07,11,8.10
2014,10,27,07,12,8.10
2014,10,27,07,13,8.10
2014,10,27,07,14,8.10
2014,10,27,07,15,8.10
2014,10,27,07,16,8.10
2014,10,27,07,17,8.10
2014,10,27,07,18,8.10
2014,10,27,07,19,8.10
2014,10,27,07,20,8.10
2014,10,27,07,21,8.10
2014,10,27,07,22,8.10
2014,10,27,07,23,8.00
2014,10,27,07,24,8.10
2014,10,27,07,25,8.10
2014,10,27,07,26,8.10
2014,10,27,07,27,8.10
2014,10,27,07,28,8.10
2014,10,27,07,29,8.10
2014,10,27,07,30,8.10
2014,10,27,07,31,8.10
2014,10,27,07,32,8.10
2014,10,27,07,33,8.10
2014,10,27,07,34,8.10
2014,10,27,07,35,8.10
2014,10,27,07,36,8.10
2014,10,27,07,37,8.10
2014,10,27,07,38,8.10
2014,10,27,07,39,8.10
2014,10,27,07,40,8.10
2014,10,27,07,41,8.10
2014,10,27,07,42,8.10
2014,10,27,07,43,8.10
2014,10,27,07,44,8.10
2014,10,27,07,45,8.10
2014,10,27,07,46,8.10
2014,10,27,07,47,8.10
2014,10,27,07,48,8.10
2014,10,27,07,49,8.10
2014,10,27,07,50,8.10
2014,10,27,07,51,8.10
2014,10,27,07,52,8.10
2014,10,27,07,53,8.10
2014,10,27,07,54,8.10
2014,10,27,07,55,8.10
2014,10,27,07,56,8.10
2014,10,27,07,57,8.10
2014,10,27,07,58,8.10
2014,10,27,07,59,8.10
2014,10,27,08,00,8.10
2014,10,27,08,01,8.10
2014,10,27,08,02,8.10
2014,10,27,08,03,8.10
2014,10,27,08,04,8.10
2014,10,27,08,05,8.10
2014,10,27,08,06,8.10
2014,10,27,08,07,8.10
2014,10,27,08,08,8.00
2014,10,27,08,09,8.00
2014,10,27,08,10,8.00
2014,10,27,08,11,8.00
2014,10,27,08,12,8.00
2014,10,27,08,13,8.00
2014,10,27,08,14,7.90
2014,10,27,08,15,7.90
2014,10,27,08,16,7.90
2014,10,27,08,17,7.90
2014,10,27,08,18,7.80
2014,10,27,08,19,7.80
2014,10,27,08,20,7.80
2014,10,27,08,21,7.80
2014,10,27,08,22,7.80
2014,10,27,08,23,7.80
2014,10,27,08,24,7.80
2014,10,27,08,25,7.80
2014,10,27,08,26,7.80
2014,10,27,08,27,7.80
2014,10,27,08,28,7.80
2014,10,27,08,29,7.80
2014,10,27,08,30,7.80
2014,10,27,08,31,7.80
2014,10,27,08,32,7.80
2014,10,27,08,33,7.80
2014,10,27,08,34,7.80
2014,10,27,08,35,7.80
2014,10,27,08,36,7.80
2014,10,27,08,37,7.80
2014,10,27,08,38,7.80
2014,10,27,08,39,7.80
2014,10,27,08,40,7.80
2014,10,27,08,41,7.80
2014,10,27,08,42,7.80
2014,10,27,08,43,7.80
2014,10,27,08,44,7.80
2014,10,27,08,45,7.80
2014,10,27,08,46,7.80
2014,10,27,08,47,7.80
2014,10,27,08,48,7.80
2014,10,27,08,49,7.80
2014,10,27,08,50,7.80
2014,10,27,08,51,7.80
2014,10,27,08,52,7.80
2014,10,27,08,53,7.80
2014,10,27,08,54,7.80
2014,10,27,08,55,7.80
2014,10,27,08,56,7.80
2014,10,27,08,57,7.80
2014,10,27,08,58,7.80
2014,10,27,08,59,7.80
2014,10,27,09,00,7.80
2014,10,27,09,01,7.80
2014,10,27,09,02,7.80
2014,10,27,09,03,7.80
2014,10,27,09,04,7.80
2014,10,27,09,05,7.80
2014,10,27,09,06,7.80
2014,10,27,09,07,7.80
2014,10,27,09,08,7.80
2014,10,27,09,09,7.80
2014,10,27,09,10,7.80
2014,10,27,09,11,7.80
2014,10,27,09,12,7.80
2014,10,27,09,13,7.80
2014,10,27,09,14,7.80
2014,10,27,09,15,7.80
2014,10,27,09,16,7.80
2014,10,27,09,17,7.80
2014,10,27,09,18,7.80
2014,10,27,09,19,7.80
2014,10,27,09,20,7.80
2014,10,27,09,21,7.80
2014,10,27,09,22,7.80
2014,10,27,09,23,7.80
2014,10,27,09,24,7.80
2014,10,27,09,25,7.80
2014,10,27,09,26,7.80
2014,10,27,09,27,7.80
2014,10,27,09,28,7.80
2014,10,27,09,29,7.80
2014,10,27,09,30,7.80
2014,10,27,09,31,7.80
2014,10,27,09,32,7.80
2014,10,27,09,33,7.80
2014,10,27,09,34,7.80
2014,10,27,09,35,7.80
2014,10,27,09,36,7.90
2014,10,27,09,37,7.90
2014,10,27,09,38,7.90
2014,10,27,09,39,7.90
2014,10,27,09,40,7.90
2014,10,27,09,41,7.90
2014,10,27,09,42,7.90
2014,10,27,09,43,7.90
2014,10,27,09,44,7.90
2014,10,27,09,45,7.90
2014,10,27,09,46,7.90
2014,10,27,09,47,7.90
2014,10,27,09,48,8.00
2014,10,27,09,49,8.00
2014,10,27,09,50,8.00
2014,10,27,09,51,8.00
2014,10,27,09,52,8.00
2014,10,27,09,53,8.00
2014,10,27,09,54,8.00
2014,10,27,09,55,8.00
2014,10,27,09,56,8.00
2014,10,27,09,57,8.00
2014,10,27,09,58,8.00
2014,10,27,09,59,8.00
2014,10,27,10,00,8.00
2014,10,27,10,01,8.00
2014,10,27,10,02,8.00
2014,10,27,10,03,8.00
2014,10,27,10,04,8.00
2014,10,27,10,05,8.00
2014,10,27,10,06,8.00
2014,10,27,10,07,8.00
2014,10,27,10,08,8.00
2014,10,27,10,09,8.00
2014,10,27,10,10,8.00
2014,10,27,10,11,8.00
2014,10,27,10,12,8.00
2014,10,27,10,13,8.00
2014,10,27,10,14,8.00
2014,10,27,10,15,8.00
2014,10,27,10,16,8.10
2014,10,27,10,17,8.10
2014,10,27,10,18,8.10
2014,10,27,10,19,8.10
2014,10,27,10,20,8.10
2014,10,27,10,21,8.10
2014,10,27,10,22,8.10
2014,10,27,10,23,8.10
2014,10,27,10,24,8.10
2014,10,27,10,25,8.10
2014,10,27,10,26,8.10
2014,10,27,10,27,8.10
2014,10,27,10,28,8.10
2014,10,27,10,29,8.10
2014,10,27,10,30,8.10
2014,10,27,10,31,8.10
2014,10,27,10,32,8.10
2014,10,27,10,33,8.10
2014,10,27,10,34,8.10
2014,10,27,10,35,8.10
2014,10,27,10,36,8.10
2014,10,27,10,37,8.10
2014,10,27,10,38,8.10
2014,10,27,10,39,8.10
2014,10,27,10,40,8.10
2014,10,27,10,41,8.10
2014,10,27,10,42,8.10
2014,10,27,10,43,8.10
2014,10,27,10,44,8.10
2014,10,27,10,45,8.10
2014,10,27,10,46,8.10
2014,10,27,10,47,8.10
2014,10,27,10,48,8.10
2014,10,27,10,49,8.10
2014,10,27,10,50,8.10
2014,10,27,10,51,8.10
2014,10,27,10,52,8.10
2014,10,27,10,53,8.10
2014,10,27,10,54,8.10
2014,10,27,10,55,8.10
2014,10,27,10,56,8.10
2014,10,27,10,57,8.10
2014,10,27,10,58,8.10
2014,10,27,10,59,8.10
2014,10,27,11,00,8.10
2014,10,27,11,01,8.10
2014,10,27,11,02,8.10
2014,10,27,11,03,8.10
2014,10,27,11,04,8.10
2014,10,27,11,05,8.10
2014,10,27,11,06,8.10
2014,10,27,11,07,8.10
2014,10,27,11,08,8.10
2014,10,27,11,09,8.10
2014,10,27,11,10,8.10
2014,10,27,11,11,8.10
2014,10,27,11,12,8.10
2014,10,27,11,13,8.10
2014,10,27,11,14,8.10
2014,10,27,11,15,8.10
2014,10,27,11,16,8.10
2014,10,27,11,17,8.10
2014,10,27,11,18,8.10
2014,10,27,11,19,8.10
2014,10,27,11,20,8.10
2014,10,27,11,21,8.10
2014,10,27,11,22,8.10
2014,10,27,11,23,8.10
2014,10,27,11,24,8.10
2014,10,27,11,25,8.10
2014,10,27,11,26,8.10
2014,10,27,11,27,8.10
2014,10,27,11,28,8.10
2014,10,27,11,29,8.20
2014,10,27,11,30,8.10
2014,10,27,11,31,8.20
2014,10,27,11,32,8.20
2014,10,27,11,33,8.20
2014,10,27,11,34,8.20
2014,10,27,11,35,8.20
2014,10,27,11,36,8.20
2014,10,27,11,37,8.20
2014,10,27,11,38,8.20
2014,10,27,11,39,8.20
2014,10,27,11,40,8.20
2014,10,27,11,41,8.30
2014,10,27,11,42,8.30
2014,10,27,11,43,8.30
2014,10,27,11,44,8.30
2014,10,27,11,45,8.30
2014,10,27,11,46,8.40
2014,10,27,11,47,8.40
2014,10,27,11,48,8.40
2014,10,27,11,49,8.40
2014,10,27,11,50,8.40
2014,10,27,11,51,8.50
2014,10,27,11,52,8.50
2014,10,27,11,53,8.50
2014,10,27,11,54,8.50
2014,10,27,11,55,8.60
2014,10,27,11,56,8.60
2014,10,27,11,57,8.60
2014,10,27,11,58,8.60
2014,10,27,11,59,8.60
2014,10,27,12,00,8.60
2014,10,27,12,01,8.70
2014,10,27,12,02,8.70
2014,10,27,12,03,8.70
2014,10,27,12,04,8.70
2014,10,27,12,05,8.70
2014,10,27,12,06,8.70
2014,10,27,12,07,8.80
2014,10,27,12,08,8.80
2014,10,27,12,09,8.80
2014,10,27,12,10,8.80
2014,10,27,12,11,8.80
2014,10,27,12,12,8.80
2014,10,27,12,13,8.80
2014,10,27,12,14,8.80
2014,10,27,12,15,8.80
2014,10,27,12,16,8.90
2014,10,27,12,17,8.90
2014,10,27,12,18,8.90
2014,10,27,12,19,8.90
2014,10,27,12,20,8.90
2014,10,27,12,21,8.90
2014,10,27,12,22,9.00
2014,10,27,12,23,9.00
2014,10,27,12,24,9.00
2014,10,27,12,25,9.00
2014,10,27,12,26,9.00
2014,10,27,12,27,9.00
2014,10,27,12,28,9.00
2014,10,27,12,29,9.00
2014,10,27,12,30,9.10
2014,10,27,12,31,9.10
2014,10,27,12,32,9.10
2014,10,27,12,33,9.10
2014,10,27,12,34,9.10
2014,10,27,12,35,9.10
2014,10,27,12,36,9.10
2014,10,27,12,37,9.10
2014,10,27,12,38,9.10
2014,10,27,12,39,9.20
2014,10,27,12,40,9.20
2014,10,27,12,41,9.20
2014,10,27,12,42,9.20
2014,10,27,12,43,9.20
2014,10,27,12,44,9.20
2014,10,27,12,45,9.20
2014,10,27,12,46,9.20
2014,10,27,12,47,9.20
2014,10,27,12,48,9.20
2014,10,27,12,49,9.30
2014,10,27,12,50,9.30
2014,10,27,12,51,9.30
2014,10,27,12,52,9.30
2014,10,27,12,53,9.30
2014,10,27,12,54,9.30
2014,10,27,12,55,9.30
2014,10,27,12,56,9.30
2014,10,27,12,57,9.30
2014,10,27,12,58,9.30
2014,10,27,12,59,9.30
2014,10,27,13,00,9.30
2014,10,27,13,01,9.30
2014,10,27,13,02,9.30
2014,10,27,13,03,9.30
2014,10,27,13,04,9.30
2014,10,27,13,05,9.30
2014,10,27,13,06,9.30
2014,10,27,13,07,9.40
2014,10,27,13,08,9.40
2014,10,27,13,09,9.30
2014,10,27,13,10,9.30
2014,10,27,13,11,9.40
2014,10,27,13,12,9.40
2014,10,27,13,13,9.40
2014,10,27,13,14,9.40
2014,10,27,13,15,9.50
2014,10,27,13,16,9.50
2014,10,27,13,17,9.50
2014,10,27,13,18,9.50
2014,10,27,13,19,9.50
2014,10,27,13,20,9.50
2014,10,27,13,21,9.50
2014,10,27,13,22,9.50
2014,10,27,13,23,9.50
2014,10,27,13,24,9.50
2014,10,27,13,25,9.40
2014,10,27,13,26,9.40
2014,10,27,13,27,9.40
2014,10,27,13,28,9.40
2014,10,27,13,29,9.40
2014,10,27,13,30,9.40
2014,10,27,13,31,9.40
2014,10,27,13,32,9.40
2014,10,27,13,33,9.40
2014,10,27,13,34,9.40
2014,10,27,13,35,9.40
2014,10,27,13,36,9.40
2014,10,27,13,37,9.40
2014,10,27,13,38,9.30
2014,10,27,13,39,9.30
2014,10,27,13,40,9.30
2014,10,27,13,41,9.30
2014,10,27,13,42,9.30
2014,10,27,13,43,9.30
2014,10,27,13,44,9.30
2014,10,27,13,45,9.30
2014,10,27,13,46,9.30
2014,10,27,13,47,9.30
2014,10,27,13,48,9.30
2014,10,27,13,49,9.30
2014,10,27,13,50,9.20
2014,10,27,13,51,9.20
2014,10,27,13,52,9.20
2014,10,27,13,53,9.20
2014,10,27,13,54,9.20
2014,10,27,13,55,9.20
2014,10,27,13,56,9.20
2014,10,27,13,57,9.30
2014,10,27,13,58,9.30
2014,10,27,13,59,9.30
2014,10,27,14,00,9.30
2014,10,27,14,01,9.30
2014,10,27,14,02,9.30
2014,10,27,14,03,9.30
2014,10,27,14,04,9.30
2014,10,27,14,05,9.30
2014,10,27,14,06,9.30
2014,10,27,14,07,9.30
2014,10,27,14,08,9.30
2014,10,27,14,09,9.30
2014,10,27,14,10,9.30
2014,10,27,14,11,9.30
2014,10,27,14,12,9.30
2014,10,27,14,13,9.30
2014,10,27,14,14,9.30
2014,10,27,14,15,9.30
2014,10,27,14,16,9.30
2014,10,27,14,17,9.30
2014,10,27,14,18,9.30
2014,10,27,14,19,9.30
2014,10,27,14,20,9.30
2014,10,27,14,21,9.30
2014,10,27,14,22,9.30
2014,10,27,14,23,9.30
2014,10,27,14,24,9.30
2014,10,27,14,25,9.30
2014,10,27,14,26,9.30
2014,10,27,14,27,9.30
2014,10,27,14,28,9.30
2014,10,27,14,29,9.30
2014,10,27,14,30,9.30
2014,10,27,14,31,9.30
2014,10,27,14,32,9.30
2014,10,27,14,33,9.30
2014,10,27,14,34,9.30
2014,10,27,14,35,9.30
2014,10,27,14,36,9.30
2014,10,27,14,37,9.30
2014,10,27,14,38,9.30
2014,10,27,14,39,9.30
2014,10,27,14,40,9.30
2014,10,27,14,41,9.30
2014,10,27,14,42,9.30
2014,10,27,14,43,9.30
2014,10,27,14,44,9.30
2014,10,27,14,45,9.30
2014,10,27,14,46,9.30
2014,10,27,14,47,9.30
2014,10,27,14,48,9.30
2014,10,27,14,49,9.30
2014,10,27,14,50,9.30
2014,10,27,14,51,9.30
2014,10,27,14,52,9.30
2014,10,27,14,53,9.30
2014,10,27,14,54,9.30
2014,10,27,14,55,9.30
2014,10,27,14,56,9.30
2014,10,27,14,57,9.30
2014,10,27,14,58,9.30
2014,10,27,14,59,9.30
2014,10,27,15,00,9.30
2014,10,27,15,01,9.30
2014,10,27,15,02,9.30
2014,10,27,15,03,9.30
2014,10,27,15,04,9.30
2014,10,27,15,05,9.30
2014,10,27,15,06,9.30
2014,10,27,15,07,9.30
2014,10,27,15,08,9.30
2014,10,27,15,09,9.30
2014,10,27,15,10,9.30
2014,10,27,15,11,9.30
2014,10,27,15,12,9.30
2014,10,27,15,13,9.30
2014,10,27,15,14,9.30
2014,10,27,15,15,9.30
2014,10,27,15,16,9.30
2014,10,27,15,17,9.30
2014,10,27,15,18,9.40
2014,10,27,15,19,9.40
2014,10,27,15,20,9.40
2014,10,27,15,21,9.30
2014,10,27,15,22,9.40
2014,10,27,15,23,9.40
2014,10,27,15,24,9.40
2014,10,27,15,25,9.40
2014,10,27,15,26,9.40
2014,10,27,15,27,9.40
2014,10,27,15,28,9.40
2014,10,27,15,29,9.40
2014,10,27,15,30,9.40
2014,10,27,15,31,9.40
2014,10,27,15,32,9.40
2014,10,27,15,33,9.40
2014,10,27,15,34,9.40
2014,10,27,15,35,9.40
2014,10,27,15,36,9.40
2014,10,27,15,37,9.40
2014,10,27,15,38,9.40
2014,10,27,15,39,9.40
2014,10,27,15,40,9.40
2014,10,27,15,41,9.40
2014,10,27,15,42,9.40
2014,10,27,15,43,9.40
2014,10,27,15,44,9.40
2014,10,27,15,45,9.40
2014,10,27,15,46,9.40
2014,10,27,15,47,9.40
2014,10,27,15,48,9.40
2014,10,27,15,49,9.40
2014,10,27,15,50,9.40
2014,10,27,15,51,9.40
2014,10,27,15,52,9.30
2014,10,27,15,53,9.30
2014,10,27,15,54,9.30
2014,10,27,15,55,9.30
2014,10,27,15,56,9.30
2014,10,27,15,57,9.30
2014,10,27,15,58,9.30
2014,10,27,15,59,9.30
2014,10,27,16,00,9.30
2014,10,27,16,01,9.30
2014,10,27,16,02,9.20
2014,10,27,16,03,9.20
2014,10,27,16,04,9.20
2014,10,27,16,05,9.20
2014,10,27,16,06,9.20
2014,10,27,16,07,9.20
2014,10,27,16,08,9.20
2014,10,27,16,09,9.20
2014,10,27,16,10,9.20
2014,10,27,16,11,9.10
2014,10,27,16,12,9.10
2014,10,27,16,13,9.10
2014,10,27,16,14,9.10
2014,10,27,16,15,9.10
2014,10,27,16,16,9.10
2014,10,27,16,17,9.10
2014,10,27,16,18,9.10
2014,10,27,16,19,9.10
2014,10,27,16,20,9.10
2014,10,27,16,21,9.10
2014,10,27,16,22,9.10
2014,10,27,16,23,9.00
2014,10,27,16,24,9.00
2014,10,27,16,25,9.00
2014,10,27,16,26,9.00
2014,10,27,16,27,9.00
2014,10,27,16,28,9.00
2014,10,27,16,29,9.00
2014,10,27,16,30,9.00
2014,10,27,16,31,9.00
2014,10,27,16,32,9.00
2014,10,27,16,33,8.90
2014,10,27,16,34,8.90
2014,10,27,16,35,8.90
2014,10,27,16,36,8.90
2014,10,27,16,37,8.90
2014,10,27,16,38,8.90
2014,10,27,16,39,8.90
2014,10,27,16,40,8.90
2014,10,27,16,41,8.90
2014,10,27,16,42,8.90
2014,10,27,16,43,8.90
2014,10,27,16,44,8.90
2014,10,27,16,45,8.90
2014,10,27,16,46,8.90
2014,10,27,16,47,8.90
2014,10,27,16,48,8.90
2014,10,27,16,49,8.90
2014,10,27,16,50,8.90
2014,10,27,16,51,8.90
2014,10,27,16,52,8.90
2014,10,27,16,53,8.90
2014,10,27,16,54,8.90
2014,10,27,16,55,8.90
2014,10,27,16,56,8.90
2014,10,27,16,57,8.90
2014,10,27,16,58,8.90
2014,10,27,16,59,8.90
2014,10,27,17,00,8.90
2014,10,27,17,01,8.90
2014,10,27,17,02,8.90
2014,10,27,17,03,8.90
2014,10,27,17,04,8.90
2014,10,27,17,05,8.90
2014,10,27,17,06,8.90
2014,10,27,17,07,8.90
2014,10,27,17,08,8.90
2014,10,27,17,09,8.90
2014,10,27,17,10,8.90
2014,10,27,17,11,8.90
2014,10,27,17,12,8.90
2014,10,27,17,13,8.90
2014,10,27,17,14,8.90
2014,10,27,17,15,8.90
2014,10,27,17,16,8.90
2014,10,27,17,17,9.00
2014,10,27,17,18,9.00
2014,10,27,17,19,9.00
2014,10,27,17,20,9.00
2014,10,27,17,21,9.00
2014,10,27,17,22,9.00
2014,10,27,17,23,9.00
2014,10,27,17,24,9.00
2014,10,27,17,25,9.00
2014,10,27,17,26,9.00
2014,10,27,17,27,9.00
2014,10,27,17,28,9.00
2014,10,27,17,29,9.10
2014,10,27,17,30,9.10
2014,10,27,17,31,9.10
2014,10,27,17,32,9.10
2014,10,27,17,33,9.10
2014,10,27,17,34,9.10
2014,10,27,17,35,9.10
2014,10,27,17,36,9.10
2014,10,27,17,37,9.10
2014,10,27,17,38,9.10
2014,10,27,17,39,9.10
2014,10,27,17,40,9.10
2014,10,27,17,41,9.10
2014,10,27,17,42,9.10
2014,10,27,17,43,9.10
2014,10,27,17,44,9.10
2014,10,27,17,45,9.10
2014,10,27,17,46,9.10
2014,10,27,17,47,9.10
2014,10,27,17,48,9.10
2014,10,27,17,49,9.10
2014,10,27,17,50,9.10
2014,10,27,17,51,9.10
2014,10,27,17,52,9.10
2014,10,27,17,53,9.10
2014,10,27,17,54,9.20
2014,10,27,17,55,9.20
2014,10,27,17,56,9.20
2014,10,27,17,57,9.20
2014,10,27,17,58,9.20
2014,10,27,17,59,9.20
2014,10,27,18,00,9.20
2014,10,27,18,01,9.20
2014,10,27,18,02,9.20
2014,10,27,18,03,9.20
2014,10,27,18,04,9.20
2014,10,27,18,05,9.20
2014,10,27,18,06,9.20